This is the latest recevied weather packets stored in our database for station/object NC4M. If no packets are shown the sender has not sent any weather packets the latest 10 day(s).
| Time | Temp. | Humidity | Pressure | Rain* | Wind** | Luminosity | Snow |
|---|---|---|---|---|---|---|---|
| 1777744760 | 15.56° C | 34% | 1020.2 hPa | 0 mm | - | 181 W/m² | - |
| 1777744454 | 15° C | 37% | 1020.3 hPa | 0 mm | - | 291 W/m² | - |
| 1777744151 | 13.89° C | 38% | 1020.5 hPa | 0 mm | - | 1037 W/m² | - |
| 1777743544 | 15° C | 34% | 1020.6 hPa | 0 mm | - | 269 W/m² | - |
| 1777742940 | 15.56° C | 39% | 1020.7 hPa | 0 mm | - | 978 W/m² | - |
| 1777742332 | 15.56° C | 34% | 1020.5 hPa | 0 mm | - | 585 W/m² | - |
| 1777741726 | 13.89° C | 36% | 1020.8 hPa | 0 mm | - | 891 W/m² | - |
| 1777741118 | 15° C | 38% | 1020.5 hPa | 0 mm | - | 184 W/m² | - |
| 1777740514 | 15° C | 43% | 1020.7 hPa | 0 mm | - | 969 W/m² | - |
| 1777739906 | 13.89° C | 41% | 1020.8 hPa | 0 mm | - | 154 W/m² | - |
| 1777739300 | 13.89° C | 39% | 1020.6 hPa | 0 mm | - | 140 W/m² | - |
| 1777738694 | 15.56° C | 38% | 1020.6 hPa | 0 mm | - | 149 W/m² | - |
| 1777738088 | 13.89° C | 40% | 1020.2 hPa | 0 mm | - | 887 W/m² | - |
| 1777737485 | 15° C | 35% | 1020.7 hPa | 0 mm | - | 859 W/m² | - |
| 1777736264 | 14.44° C | 45% | 1020.7 hPa | 0 mm | - | 125 W/m² | - |
| 1777735960 | 13.89° C | 47% | 1020.3 hPa | 0 mm | - | 696 W/m² | - |
| 1777735658 | 13.89° C | 47% | 1020.6 hPa | 0 mm | - | 178 W/m² | - |
| 1777735355 | 13.89° C | 49% | 1020.3 hPa | 0 mm | - | 519 W/m² | - |
| 1777735053 | 13.33° C | 51% | 1020.6 hPa | 0 mm | - | 535 W/m² | - |
| 1777734750 | 12.78° C | 53% | 1020.5 hPa | 0 mm | - | 81 W/m² | - |
| 1777734447 | 13.33° C | 55% | 1020.3 hPa | 0 mm | - | 68 W/m² | - |
| 1777734144 | 12.78° C | 58% | 1020.2 hPa | 0 mm | - | 91 W/m² | - |
| 1777733840 | 12.78° C | 58% | 1020.2 hPa | 0 mm | - | 94 W/m² | - |
| 1777733233 | 12.78° C | 59% | 1020.2 hPa | 0 mm | - | 74 W/m² | - |
| 1777732626 | 12.22° C | 63% | 1020 hPa | 0 mm | - | 65 W/m² | - |
* Rain latest hour (hover to see other rain measurements)
** Current wind speed in m/s (hover to see current wind gust speed)